| time (UTC) | temp F | wind direction | speed MPH | gust MPH | rain 1hr in | rain 24hr in | rain mn in | humidity % | barometer mb |
| 20260510023132 | 65 | 180 | 0.0 | 3.0 | 0.00 | 0.00 | 0.00 | 63 | 1015.0 |
| 20260510022621 | 65 | 184 | 0.0 | 3.0 | 0.00 | 0.00 | 0.00 | 63 | 1015.1 |
| 20260510022121 | 66 | 136 | 0.0 | 7.0 | 0.00 | 0.00 | 0.00 | 63 | 1015.1 |
| 20260510021613 | 66 | 184 | 0.0 | 7.0 | 0.00 | 0.00 | 0.00 | 63 | 1015.1 |
| 20260510021107 | 66 | 165 | 0.0 | 7.0 | 0.00 | 0.00 | 0.00 | 63 | 1015.1 |
| 20260510020601 | 66 | 309 | 0.0 | 7.0 | 0.00 | 0.00 | 0.00 | 62 | 1015.1 |
| 20260510020055 | 67 | 218 | 0.0 | 0.0 | 0.00 | 0.00 | 0.00 | 64 | 1015.1 |
| 20260510015552 | 67 | 135 | 0.0 | 0.0 | 0.00 | 0.00 | 0.00 | 63 | 1015.0 |
| 20260510015317 | 67 | 134 | 0.0 | 0.0 | 0.00 | 0.00 | 0.00 | 63 | 1015.0 |
| 20260510014537 | 67 | 134 | 0.0 | 0.0 | 0.00 | 0.00 | 0.00 | 61 | 1015.0 |
| 20260510014032 | 67 | 169 | 0.0 | 0.0 | 0.00 | 0.00 | 0.00 | 62 | 1015.1 |
| 20260510013524 | 67 | 132 | 0.0 | 0.0 | 0.00 | 0.00 | 0.00 | 61 | 1015.2 |
| 20260510013019 | 67 | 5 | 0.0 | 1.0 | 0.00 | 0.00 | 0.00 | 63 | 1015.3 |
| 20260510012514 | 68 | 29 | 0.0 | 1.0 | 0.00 | 0.00 | 0.00 | 62 | 1015.3 |
| 20260510012007 | 68 | 209 | 0.0 | 1.0 | 0.00 | 0.00 | 0.00 | 61 | 1015.3 |
| 20260510011503 | 68 | 152 | 0.0 | 1.0 | 0.00 | 0.00 | 0.00 | 62 | 1015.3 |
| 20260510010956 | 68 | 164 | 0.0 | 0.0 | 0.00 | 0.00 | 0.00 | 60 | 1015.5 |
| 20260510010711 | 68 | 316 | 0.0 | 0.0 | 0.00 | 0.00 | 0.00 | 60 | 1015.6 |
| 20260510005943 | 68 | 140 | 0.0 | 1.0 | 0.00 | 0.00 | 0.00 | 59 | 1015.5 |
| 20260510005440 | 68 | 146 | 0.0 | 4.0 | 0.00 | 0.00 | 0.00 | 60 | 1015.5 |
| 20260510004931 | 69 | 185 | 0.0 | 4.0 | 0.00 | 0.00 | 0.00 | 60 | 1015.6 |
| 20260510004654 | 69 | 142 | 0.0 | 0.0 | 0.00 | 0.00 | 0.00 | 59 | 1015.7 |
| 20260510004147 | 69 | 163 | 0.0 | 0.0 | 0.00 | 0.00 | 0.00 | 58 | 1015.6 |
| 20260510003415 | 69 | 129 | 0.0 | 0.0 | 0.00 | 0.00 | 0.00 | 60 | 1015.6 |
| 20260510002906 | 69 | 36 | 0.0 | 0.0 | 0.00 | 0.00 | 0.00 | 57 | 1015.6 |
| 20260510002400 | 69 | 194 | 0.0 | 0.0 | 0.00 | 0.00 | 0.00 | 59 | 1015.7 |
| 20260510001855 | 69 | 194 | 0.0 | 0.0 | 0.00 | 0.00 | 0.00 | 58 | 1015.8 |
| 20260510001349 | 69 | 103 | 0.0 | 0.0 | 0.00 | 0.00 | 0.00 | 56 | 1015.7 |
| 20260510000845 | 69 | 150 | 0.0 | 0.0 | 0.00 | 0.00 | 0.00 | 57 | 1015.8 |
| 20260510000338 | 69 | 159 | 0.0 | 0.0 | 0.00 | 0.00 | 0.00 | 55 | 1015.8 |
| 20260509235831 | 69 | 293 | 0.0 | 9.0 | 0.00 | 0.00 | 0.00 | 55 | 1015.9 |
| 20260509235553 | 69 | 22 | 0.0 | 9.0 | 0.00 | 0.00 | 0.00 | 54 | 1015.8 |
| 20260509234821 | 69 | 71 | 0.0 | 3.0 | 0.00 | 0.00 | 0.00 | 55 | 1015.9 |
| 20260509234313 | 70 | 111 | 0.0 | 3.0 | 0.00 | 0.00 | 0.00 | 54 | 1016.0 |
| 20260509233803 | 70 | 269 | 0.0 | 2.0 | 0.00 | 0.00 | 0.00 | 56 | 1016.1 |
| 20260509233300 | 70 | 194 | 0.0 | 0.0 | 0.00 | 0.00 | 0.00 | 54 | 1016.0 |
| 20260509233247 | 70 | 115 | 0.0 | 2.0 | 0.00 | 0.00 | 0.00 | 54 | 1016.0 |
| 20260509232300 | 70 | 111 | 0.0 | 5.0 | 0.00 | 0.00 | 0.00 | 53 | 1016.2 |
| 20260509231800 | 70 | 119 | 0.0 | 6.0 | 0.00 | 0.00 | 0.00 | 53 | 1016.2 |
| 20260509231258 | 70 | 146 | 0.0 | 7.0 | 0.00 | 0.00 | 0.00 | 58 | 1016.4 |
| 20260509230758 | 70 | 140 | 0.0 | 7.0 | 0.00 | 0.00 | 0.00 | 54 | 1016.4 |
| 20260509230259 | 70 | 192 | 0.0 | 0.0 | 0.00 | 0.00 | 0.00 | 53 | 1016.4 |
| 20260509230025 | 70 | 169 | 0.0 | 1.0 | 0.00 | 0.00 | 0.00 | 56 | 1016.4 |
| 20260509225254 | 70 | 71 | 0.0 | 1.0 | 0.00 | 0.00 | 0.00 | 56 | 1016.5 |
| 20260509224755 | 70 | 50 | 0.0 | 0.0 | 0.00 | 0.00 | 0.00 | 57 | 1016.5 |
| 20260509224253 | 70 | 350 | 0.0 | 0.0 | 0.00 | 0.00 | 0.00 | 52 | 1016.5 |
| 20260509223752 | 71 | 342 | 0.0 | 0.0 | 0.00 | 0.00 | 0.00 | 53 | 1016.5 |
| 20260509223250 | 71 | 292 | 0.0 | 0.0 | 0.00 | 0.00 | 0.00 | 52 | 1016.4 |
| 20260509222750 | 71 | 297 | 0.0 | 5.0 | 0.00 | 0.00 | 0.00 | 53 | 1016.5 |
| 20260509222745 | 71 | 126 | 0.0 | 5.0 | 0.00 | 0.00 | 0.00 | 53 | 1016.5 |
| 20260509221756 | 71 | 121 | 0.0 | 1.0 | 0.00 | 0.00 | 0.00 | 55 | 1016.5 |
| 20260509221253 | 71 | 122 | 0.0 | 0.0 | 0.00 | 0.00 | 0.00 | 55 | 1016.7 |
| 20260509220750 | 71 | 104 | 0.0 | 2.0 | 0.00 | 0.00 | 0.00 | 53 | 1016.7 |
| 20260509220519 | 71 | 169 | 0.0 | 2.0 | 0.00 | 0.00 | 0.00 | 53 | 1016.7 |
| 20260509215750 | 71 | 146 | 0.0 | 2.0 | 0.00 | 0.00 | 0.00 | 57 | 1016.8 |
| 20260509215250 | 70 | 138 | 0.0 | 2.0 | 0.00 | 0.00 | 0.00 | 56 | 1016.9 |
| 20260509214751 | 70 | 323 | 0.0 | 1.0 | 0.00 | 0.00 | 0.00 | 54 | 1016.9 |
| 20260509214247 | 71 | 355 | 0.0 | 1.0 | 0.00 | 0.00 | 0.00 | 52 | 1016.8 |
| 20260509213749 | 71 | 275 | 0.0 | 0.0 | 0.00 | 0.00 | 0.00 | 54 | 1016.8 |
| 20260509213244 | 71 | 317 | 0.0 | 0.0 | 0.00 | 0.00 | 0.00 | 52 | 1016.9 |
| 20260509212746 | 71 | 205 | 0.0 | 0.0 | 0.00 | 0.00 | 0.00 | 52 | 1016.9 |
| 20260509212247 | 71 | 287 | 0.0 | 0.0 | 0.00 | 0.00 | 0.00 | 52 | 1016.9 |
| 20260509211743 | 71 | 169 | 0.0 | 0.0 | 0.00 | 0.00 | 0.00 | 56 | 1016.8 |
| 20260509211503 | 71 | 74 | 0.0 | 0.0 | 0.00 | 0.00 | 0.00 | 53 | 1016.9 |
| 20260509210741 | 71 | 112 | 0.0 | 0.0 | 0.00 | 0.00 | 0.00 | 54 | 1017.0 |
| 20260509210238 | 71 | 298 | 0.0 | 1.0 | 0.00 | 0.00 | 0.00 | 57 | 1017.0 |
| 20260509205737 | 70 | 168 | 0.0 | 3.0 | 0.00 | 0.00 | 0.00 | 56 | 1017.0 |
| 20260509205235 | 70 | 0 | 0.0 | 3.0 | 0.00 | 0.00 | 0.00 | 55 | 1017.1 |
| 20260509204735 | 70 | 309 | 0.0 | 0.0 | 0.00 | 0.00 | 0.00 | 56 | 1017.2 |
| 20260509204235 | 70 | 153 | 0.0 | 3.0 | 0.00 | 0.00 | 0.00 | 55 | 1017.3 |
| 20260509203734 | 69 | 149 | 0.0 | 3.0 | 0.00 | 0.00 | 0.00 | 55 | 1017.4 |
| 20260509203231 | 69 | 167 | 0.0 | 3.0 | 0.00 | 0.00 | 0.00 | 57 | 1017.5 |
| 20260509202733 | 69 | 45 | 0.0 | 1.0 | 0.00 | 0.00 | 0.00 | 54 | 1017.6 |
| 20260509202239 | 69 | 300 | 0.0 | 2.0 | 0.00 | 0.00 | 0.00 | 54 | 1017.7 |
| 20260509201735 | 69 | 281 | 0.0 | 2.0 | 0.00 | 0.00 | 0.00 | 56 | 1017.8 |
| 20260509201228 | 69 | 202 | 0.0 | 0.0 | 0.00 | 0.00 | 0.00 | 58 | 1017.8 |
| 20260509200724 | 69 | 159 | 0.0 | 1.0 | 0.00 | 0.00 | 0.00 | 58 | 1018.0 |
| 20260509200216 | 69 | 138 | 0.0 | 1.0 | 0.00 | 0.00 | 0.00 | 55 | 1018.1 |
| 20260509195710 | 69 | 298 | 0.0 | 0.0 | 0.00 | 0.00 | 0.00 | 58 | 1018.3 |
| 20260509195204 | 69 | 313 | 0.0 | 0.0 | 0.00 | 0.00 | 0.00 | 57 | 1018.4 |
| 20260509194701 | 68 | 355 | 0.0 | 6.0 | 0.00 | 0.00 | 0.00 | 61 | 1018.4 |
| 20260509194153 | 68 | 330 | 0.0 | 6.0 | 0.00 | 0.00 | 0.00 | 57 | 1018.3 |
| 20260509193646 | 68 | 273 | 0.0 | 1.0 | 0.00 | 0.00 | 0.00 | 55 | 1018.3 |
| 20260509193140 | 68 | 125 | 0.0 | 2.0 | 0.00 | 0.00 | 0.00 | 59 | 1018.4 |
| 20260509192636 | 68 | 164 | 0.0 | 2.0 | 0.00 | 0.00 | 0.00 | 57 | 1018.4 |
| 20260509192129 | 68 | 134 | 0.0 | 6.0 | 0.00 | 0.00 | 0.00 | 61 | 1018.4 |
| 20260509191622 | 68 | 163 | 0.0 | 6.0 | 0.00 | 0.00 | 0.00 | 60 | 1018.5 |
| 20260509191116 | 67 | 103 | 0.0 | 0.0 | 0.00 | 0.00 | 0.00 | 55 | 1018.5 |
| 20260509190613 | 67 | 312 | 0.0 | 0.0 | 0.00 | 0.00 | 0.00 | 59 | 1018.6 |
| 20260509190105 | 67 | 305 | 0.0 | 1.0 | 0.00 | 0.00 | 0.00 | 57 | 1018.6 |
| 20260509185555 | 67 | 153 | 0.0 | 1.0 | 0.00 | 0.00 | 0.00 | 55 | 1018.7 |
| 20260509185322 | 67 | 135 | 0.0 | 0.0 | 0.00 | 0.00 | 0.00 | 57 | 1018.9 |
| 20260509184548 | 67 | 319 | 0.0 | 0.0 | 0.00 | 0.00 | 0.00 | 58 | 1018.9 |
| 20260509184259 | 67 | 289 | 0.0 | 0.0 | 0.00 | 0.00 | 0.00 | 61 | 1019.0 |
| 20260509183535 | 66 | 84 | 0.0 | 0.0 | 0.00 | 0.00 | 0.00 | 56 | 1019.0 |
| 20260509183028 | 66 | 309 | 0.0 | 0.0 | 0.00 | 0.00 | 0.00 | 63 | 1019.1 |
| 20260509182747 | 65 | 307 | 0.0 | 0.0 | 0.00 | 0.00 | 0.00 | 61 | 1019.1 |
| 20260509182500 | 65 | 298 | 0.0 | 0.0 | 0.00 | 0.00 | 0.00 | 59 | 1019.0 |
| 20260509181510 | 65 | 195 | 0.0 | 0.0 | 0.00 | 0.00 | 0.00 | 59 | 1019.0 |
| 20260509181004 | 65 | 85 | 0.0 | 0.0 | 0.00 | 0.00 | 0.00 | 56 | 1019.0 |
| 20260509180500 | 65 | 86 | 0.0 | 0.0 | 0.00 | 0.00 | 0.00 | 59 | 1019.0 |
| 20260509180226 | 65 | 165 | 0.0 | 0.0 | 0.00 | 0.00 | 0.00 | 63 | 1019.1 |
| 20260509175707 | 64 | 296 | 0.0 | 1.0 | 0.00 | 0.00 | 0.00 | 64 | 1019.1 |
| 20260509175200 | 64 | 321 | 0.0 | 1.0 | 0.00 | 0.00 | 0.00 | 63 | 1019.1 |
| 20260509174437 | 64 | 184 | 0.0 | 1.0 | 0.00 | 0.00 | 0.00 | 61 | 1019.1 |
| 20260509174151 | 63 | 203 | 0.0 | 0.0 | 0.00 | 0.00 | 0.00 | 65 | 1019.0 |
| 20260509173426 | 62 | 319 | 0.0 | 0.0 | 0.00 | 0.00 | 0.00 | 65 | 1019.0 |
| 20260509172917 | 62 | 348 | 0.0 | 0.0 | 0.00 | 0.00 | 0.00 | 67 | 1019.0 |
| 20260509172412 | 61 | 15 | 0.0 | 0.0 | 0.00 | 0.00 | 0.00 | 70 | 1019.1 |
| 20260509172125 | 60 | 348 | 0.0 | 0.0 | 0.00 | 0.00 | 0.00 | 76 | 1019.1 |
| 20260509171357 | 59 | 0 | 0.0 | 0.0 | 0.00 | 0.00 | 0.00 | 79 | 1019.3 |
| 20260509170852 | 58 | 214 | 0.0 | 0.0 | 0.00 | 0.00 | 0.00 | 76 | 1019.3 |
| 20260509170344 | 57 | 304 | 0.0 | 0.0 | 0.00 | 0.00 | 0.00 | 78 | 1019.4 |
| 20260509165840 | 56 | 304 | 0.0 | 0.0 | 0.00 | 0.00 | 0.00 | 80 | 1019.4 |
| 20260509165335 | 55 | 304 | 0.0 | 0.0 | 0.00 | 0.00 | 0.00 | 81 | 1019.5 |
| 20260509164827 | 54 | 304 | 0.0 | 0.0 | 0.00 | 0.00 | 0.00 | 84 | 1019.6 |
| 20260509164325 | 53 | 302 | 0.0 | 0.0 | 0.00 | 0.00 | 0.00 | 84 | 1019.6 |
| 20260509163816 | 53 | 246 | 0.0 | 0.0 | 0.00 | 0.00 | 0.00 | 91 | 1019.7 |
| 20260509163310 | 51 | 246 | 0.0 | 0.0 | 0.00 | 0.00 | 0.00 | 88 | 1019.8 |
| 20260509162802 | 51 | 246 | 0.0 | 0.0 | 0.00 | 0.00 | 0.00 | 93 | 1019.9 |
| 20260509162300 | 51 | 246 | 0.0 | 0.0 | 0.00 | 0.00 | 0.00 | 94 | 1020.0 |
| 20260509161752 | 50 | 246 | 0.0 | 0.0 | 0.00 | 0.00 | 0.00 | 95 | 1020.1 |
| 20260509161502 | 50 | 246 | 0.0 | 0.0 | 0.00 | 0.00 | 0.00 | 95 | 1020.2 |
| 20260509161001 | 49 | 246 | 0.0 | 0.0 | 0.00 | 0.00 | 0.00 | 95 | 1020.3 |
| 20260509160236 | 49 | 246 | 0.0 | 0.0 | 0.00 | 0.00 | 0.00 | 95 | 1020.3 |
| 20260509155952 | 48 | 246 | 0.0 | 0.0 | 0.00 | 0.00 | 0.00 | 95 | 1020.4 |
| 20260509155219 | 47 | 246 | 0.0 | 0.0 | 0.00 | 0.00 | 0.00 | 96 | 1020.4 |
| 20260509154715 | 47 | 254 | 0.0 | 1.0 | 0.00 | 0.00 | 0.00 | 96 | 1020.3 |
| 20260509154212 | 47 | 265 | 0.0 | 1.0 | 0.00 | 0.00 | 0.00 | 96 | 1020.5 |
| 20260509153925 | 46 | 333 | 0.0 | 0.0 | 0.00 | 0.00 | 0.00 | 96 | 1020.6 |
| 20260509153415 | 46 | 333 | 0.0 | 0.0 | 0.00 | 0.00 | 0.00 | 96 | 1020.6 |
| 20260509152150 | 45 | 333 | 0.0 | 0.0 | 0.00 | 0.00 | 0.00 | 96 | 1020.6 |
| 20260509151642 | 45 | 333 | 0.0 | 0.0 | 0.00 | 0.00 | 0.00 | 96 | 1020.8 |
| 20260509151140 | 45 | 333 | 0.0 | 3.0 | 0.00 | 0.00 | 0.00 | 96 | 1020.9 |
| 20260509150639 | 45 | 333 | 0.0 | 3.0 | 0.00 | 0.00 | 0.00 | 96 | 1021.0 |
| 20260509150139 | 44 | 168 | 0.0 | 1.0 | 0.00 | 0.00 | 0.00 | 96 | 1021.1 |
| 20260509145639 | 44 | 202 | 0.0 | 3.0 | 0.00 | 0.00 | 0.00 | 96 | 1021.0 |
| 20260509145141 | 44 | 175 | 0.0 | 3.0 | 0.00 | 0.00 | 0.00 | 96 | 1021.0 |
| 20260509144639 | 44 | 78 | 0.0 | 1.0 | 0.00 | 0.00 | 0.00 | 96 | 1021.1 |
| 20260509144140 | 44 | 40 | 0.0 | 1.0 | 0.00 | 0.00 | 0.00 | 95 | 1021.1 |
| 20260509143905 | 43 | 332 | 0.0 | 0.0 | 0.00 | 0.00 | 0.00 | 95 | 1021.2 |
| 20260509143142 | 43 | 332 | 0.0 | 0.0 | 0.00 | 0.00 | 0.00 | 95 | 1021.3 |
| 20260509142639 | 43 | 332 | 0.0 | 0.0 | 0.00 | 0.00 | 0.00 | 95 | 1021.3 |
| 20260509142140 | 43 | 332 | 0.0 | 0.0 | 0.00 | 0.00 | 0.00 | 95 | 1021.4 |
| 20260509141640 | 43 | 332 | 0.0 | 0.0 | 0.00 | 0.00 | 0.00 | 95 | 1021.4 |
| 20260509141142 | 43 | 332 | 0.0 | 0.0 | 0.00 | 0.00 | 0.00 | 95 | 1021.5 |
| 20260509140639 | 43 | 332 | 0.0 | 0.0 | 0.00 | 0.00 | 0.00 | 95 | 1021.5 |
| 20260509140139 | 42 | 332 | 0.0 | 0.0 | 0.00 | 0.00 | 0.00 | 94 | 1021.5 |
| 20260509135639 | 42 | 332 | 0.0 | 0.0 | 0.00 | 0.00 | 0.00 | 94 | 1021.6 |
| 20260509135138 | 42 | 119 | 0.0 | 0.0 | 0.00 | 0.00 | 0.00 | 94 | 1021.6 |
| 20260509134639 | 42 | 132 | 0.0 | 0.0 | 0.00 | 0.00 | 0.00 | 94 | 1021.6 |
| 20260509134407 | 42 | 132 | 0.0 | 0.0 | 0.00 | 0.00 | 0.00 | 94 | 1021.6 |
| 20260509133640 | 43 | 132 | 0.0 | 0.0 | 0.00 | 0.00 | 0.00 | 94 | 1021.5 |
| 20260509133413 | 43 | 132 | 0.0 | 0.0 | 0.00 | 0.00 | 0.00 | 94 | 1021.4 |
| 20260509132642 | 43 | 132 | 0.0 | 0.0 | 0.00 | 0.00 | 0.00 | 94 | 1021.4 |
| 20260509132140 | 43 | 132 | 0.0 | 0.0 | 0.00 | 0.00 | 0.00 | 93 | 1021.4 |
| 20260509131639 | 43 | 132 | 0.0 | 0.0 | 0.00 | 0.00 | 0.00 | 93 | 1021.3 |
| 20260509131137 | 43 | 132 | 0.0 | 0.0 | 0.00 | 0.00 | 0.00 | 93 | 1021.3 |
| 20260509131128 | 43 | 132 | 0.0 | 0.0 | 0.00 | 0.00 | 0.00 | 93 | 1021.2 |
| 20260509130134 | 43 | 132 | 0.0 | 0.0 | 0.00 | 0.00 | 0.00 | 93 | 1021.2 |
| 20260509125855 | 43 | 132 | 0.0 | 0.0 | 0.00 | 0.00 | 0.00 | 93 | 1021.2 |
| 20260509125135 | 44 | 132 | 0.0 | 0.0 | 0.00 | 0.00 | 0.00 | 93 | 1021.1 |
| 20260509124632 | 44 | 132 | 0.0 | 0.0 | 0.00 | 0.00 | 0.00 | 92 | 1021.1 |
| 20260509124133 | 44 | 132 | 0.0 | 0.0 | 0.00 | 0.00 | 0.00 | 92 | 1021.1 |
| 20260509123640 | 44 | 132 | 0.0 | 0.0 | 0.00 | 0.00 | 0.00 | 92 | 1021.0 |
| 20260509123137 | 44 | 132 | 0.0 | 0.0 | 0.00 | 0.00 | 0.00 | 92 | 1021.0 |
| 20260509122631 | 44 | 132 | 0.0 | 0.0 | 0.00 | 0.00 | 0.00 | 92 | 1021.1 |
| 20260509122356 | 45 | 132 | 0.0 | 0.0 | 0.00 | 0.00 | 0.00 | 92 | 1021.1 |
| 20260509121625 | 45 | 132 | 0.0 | 0.0 | 0.00 | 0.00 | 0.00 | 92 | 1021.1 |
| 20260509121121 | 45 | 132 | 0.0 | 0.0 | 0.00 | 0.00 | 0.00 | 92 | 1021.1 |
| 20260509120614 | 45 | 132 | 0.0 | 0.0 | 0.00 | 0.00 | 0.00 | 92 | 1021.1 |
| 20260509120107 | 46 | 132 | 0.0 | 0.0 | 0.00 | 0.00 | 0.00 | 92 | 1021.0 |
| 20260509115601 | 46 | 132 | 0.0 | 0.0 | 0.00 | 0.00 | 0.00 | 91 | 1021.0 |
| 20260509115315 | 46 | 132 | 0.0 | 0.0 | 0.00 | 0.00 | 0.00 | 91 | 1021.0 |
| 20260509114549 | 46 | 132 | 0.0 | 0.0 | 0.00 | 0.00 | 0.00 | 91 | 1020.9 |
| 20260509114503 | 47 | 132 | 0.0 | 0.0 | 0.00 | 0.00 | 0.00 | 92 | 1021.0 |
| 20260509114139 | 47 | 132 | 0.0 | 0.0 | 0.00 | 0.00 | 0.00 | 91 | 1021.0 |
| 20260509113256 | 47 | 132 | 0.0 | 0.0 | 0.00 | 0.00 | 0.00 | 92 | 1021.1 |
| 20260509112526 | 47 | 132 | 0.0 | 0.0 | 0.00 | 0.00 | 0.00 | 92 | 1021.2 |
| 20260509112019 | 47 | 132 | 0.0 | 0.0 | 0.00 | 0.00 | 0.00 | 92 | 1021.2 |
| 20260509111513 | 47 | 132 | 0.0 | 0.0 | 0.00 | 0.00 | 0.00 | 92 | 1021.2 |
| 20260509111415 | 48 | 211 | 0.0 | 0.0 | 0.00 | 0.00 | 0.00 | 92 | 1021.2 |
| 20260509110502 | 48 | 211 | 0.0 | 0.0 | 0.00 | 0.00 | 0.00 | 93 | 1021.3 |
| 20260509105955 | 48 | 211 | 0.0 | 0.0 | 0.00 | 0.00 | 0.00 | 93 | 1021.3 |
| 20260509105449 | 48 | 211 | 0.0 | 0.0 | 0.00 | 0.00 | 0.00 | 93 | 1021.3 |
| 20260509104944 | 48 | 211 | 0.0 | 0.0 | 0.00 | 0.00 | 0.00 | 93 | 1021.4 |
| 20260509104438 | 48 | 211 | 0.0 | 0.0 | 0.00 | 0.00 | 0.00 | 93 | 1021.4 |
| 20260509103931 | 48 | 211 | 0.0 | 0.0 | 0.00 | 0.00 | 0.00 | 93 | 1021.4 |
| 20260509103425 | 48 | 211 | 0.0 | 0.0 | 0.00 | 0.00 | 0.00 | 93 | 1021.5 |
| 20260509102921 | 48 | 211 | 0.0 | 0.0 | 0.00 | 0.00 | 0.00 | 94 | 1021.5 |
| 20260509102414 | 47 | 211 | 0.0 | 0.0 | 0.00 | 0.00 | 0.00 | 94 | 1021.5 |
| 20260509101907 | 47 | 211 | 0.0 | 0.0 | 0.00 | 0.00 | 0.00 | 94 | 1021.6 |
| 20260509101402 | 47 | 211 | 0.0 | 0.0 | 0.00 | 0.00 | 0.00 | 94 | 1021.6 |
| 20260509100856 | 47 | 211 | 0.0 | 0.0 | 0.00 | 0.00 | 0.00 | 94 | 1021.7 |
| 20260509100623 | 47 | 211 | 0.0 | 0.0 | 0.00 | 0.00 | 0.00 | 93 | 1021.7 |
| 20260509095843 | 47 | 211 | 0.0 | 0.0 | 0.00 | 0.00 | 0.00 | 93 | 1021.8 |
| 20260509095340 | 47 | 211 | 0.0 | 0.0 | 0.00 | 0.00 | 0.00 | 93 | 1021.8 |
| 20260509094840 | 47 | 211 | 0.0 | 0.0 | 0.00 | 0.00 | 0.00 | 93 | 1021.8 |
| 20260509094341 | 47 | 211 | 0.0 | 0.0 | 0.00 | 0.00 | 0.00 | 93 | 1021.9 |
| 20260509093837 | 47 | 211 | 0.0 | 0.0 | 0.00 | 0.00 | 0.00 | 93 | 1021.9 |
| 20260509093334 | 47 | 211 | 0.0 | 0.0 | 0.00 | 0.00 | 0.00 | 93 | 1021.9 |
| 20260509093102 | 47 | 211 | 0.0 | 0.0 | 0.00 | 0.00 | 0.00 | 93 | 1021.9 |
| 20260509092330 | 47 | 211 | 0.0 | 0.0 | 0.00 | 0.00 | 0.00 | 93 | 1021.9 |
| 20260509091831 | 47 | 211 | 0.0 | 0.0 | 0.00 | 0.00 | 0.00 | 93 | 1021.9 |
| 20260509091335 | 47 | 211 | 0.0 | 0.0 | 0.00 | 0.00 | 0.00 | 92 | 1021.9 |
| 20260509090830 | 47 | 211 | 0.0 | 0.0 | 0.00 | 0.00 | 0.00 | 92 | 1022.0 |
| 20260509090331 | 47 | 211 | 0.0 | 0.0 | 0.00 | 0.00 | 0.00 | 92 | 1021.9 |
| 20260509085831 | 47 | 211 | 0.0 | 0.0 | 0.00 | 0.00 | 0.00 | 92 | 1021.9 |
| 20260509085328 | 47 | 211 | 0.0 | 0.0 | 0.00 | 0.00 | 0.00 | 92 | 1022.0 |
| 20260509084825 | 47 | 211 | 0.0 | 0.0 | 0.00 | 0.00 | 0.00 | 92 | 1021.9 |
| 20260509084322 | 47 | 211 | 0.0 | 0.0 | 0.00 | 0.00 | 0.00 | 92 | 1021.9 |
| 20260509083823 | 47 | 211 | 0.0 | 0.0 | 0.00 | 0.00 | 0.00 | 92 | 1022.0 |
| 20260509083317 | 47 | 211 | 0.0 | 0.0 | 0.00 | 0.00 | 0.00 | 91 | 1022.0 |
| 20260509082818 | 47 | 211 | 0.0 | 0.0 | 0.00 | 0.00 | 0.00 | 91 | 1021.9 |
| 20260509082315 | 47 | 211 | 0.0 | 0.0 | 0.00 | 0.00 | 0.00 | 91 | 1022.0 |
| 20260509082032 | 47 | 211 | 0.0 | 0.0 | 0.00 | 0.00 | 0.00 | 90 | 1021.9 |
| 20260509081311 | 48 | 211 | 0.0 | 0.0 | 0.00 | 0.00 | 0.00 | 90 | 1021.9 |
| 20260509080811 | 48 | 211 | 0.0 | 0.0 | 0.00 | 0.00 | 0.00 | 90 | 1021.9 |
| 20260509080305 | 48 | 211 | 0.0 | 0.0 | 0.00 | 0.00 | 0.00 | 89 | 1021.9 |
| 20260509075803 | 48 | 211 | 0.0 | 0.0 | 0.00 | 0.00 | 0.00 | 89 | 1021.9 |
| 20260509075306 | 49 | 211 | 0.0 | 0.0 | 0.00 | 0.00 | 0.00 | 89 | 1021.9 |
| 20260509074803 | 49 | 211 | 0.0 | 0.0 | 0.00 | 0.00 | 0.00 | 89 | 1021.8 |
| 20260509074530 | 49 | 211 | 0.0 | 0.0 | 0.00 | 0.00 | 0.00 | 88 | 1021.8 |
| 20260509073805 | 49 | 211 | 0.0 | 0.0 | 0.00 | 0.00 | 0.00 | 87 | 1021.7 |
| 20260509073304 | 49 | 211 | 0.0 | 0.0 | 0.00 | 0.00 | 0.00 | 88 | 1021.7 |
| 20260509072803 | 50 | 211 | 0.0 | 0.0 | 0.00 | 0.00 | 0.00 | 87 | 1021.7 |
| 20260509072532 | 50 | 211 | 0.0 | 0.0 | 0.00 | 0.00 | 0.00 | 87 | 1021.7 |
| 20260509071759 | 50 | 211 | 0.0 | 0.0 | 0.00 | 0.00 | 0.00 | 87 | 1021.7 |
| 20260509071307 | 50 | 211 | 0.0 | 0.0 | 0.00 | 0.00 | 0.00 | 87 | 1021.7 |
| 20260509070804 | 50 | 211 | 0.0 | 0.0 | 0.00 | 0.00 | 0.00 | 87 | 1021.6 |
| 20260509070258 | 51 | 211 | 0.0 | 0.0 | 0.00 | 0.00 | 0.00 | 87 | 1021.6 |
| 20260509065755 | 51 | 211 | 0.0 | 0.0 | 0.00 | 0.00 | 0.00 | 87 | 1021.6 |
| 20260509065246 | 51 | 211 | 0.0 | 0.0 | 0.00 | 0.00 | 0.00 | 87 | 1021.6 |
| 20260509064740 | 51 | 211 | 0.0 | 0.0 | 0.00 | 0.00 | 0.00 | 87 | 1021.6 |
| 20260509064235 | 51 | 211 | 0.0 | 0.0 | 0.00 | 0.00 | 0.00 | 87 | 1021.6 |
| 20260509063730 | 51 | 211 | 0.0 | 0.0 | 0.00 | 0.00 | 0.00 | 87 | 1021.6 |
| 20260509063219 | 51 | 211 | 0.0 | 0.0 | 0.00 | 0.00 | 0.00 | 87 | 1021.5 |
| 20260509062934 | 51 | 211 | 0.0 | 0.0 | 0.00 | 0.00 | 0.00 | 87 | 1021.5 |
| 20260509062210 | 51 | 211 | 0.0 | 0.0 | 0.00 | 0.00 | 0.00 | 87 | 1021.4 |
| 20260509061703 | 51 | 211 | 0.0 | 0.0 | 0.00 | 0.00 | 0.00 | 86 | 1021.4 |
| 20260509061158 | 51 | 211 | 0.0 | 0.0 | 0.00 | 0.00 | 0.00 | 86 | 1021.4 |
| 20260509060653 | 51 | 211 | 0.0 | 0.0 | 0.00 | 0.00 | 0.00 | 86 | 1021.3 |
| 20260509060143 | 51 | 211 | 0.0 | 0.0 | 0.00 | 0.00 | 0.00 | 86 | 1021.3 |
| 20260509055642 | 52 | 211 | 0.0 | 0.0 | 0.00 | 0.00 | 0.00 | 85 | 1021.3 |
| 20260509055135 | 51 | 211 | 0.0 | 0.0 | 0.00 | 0.00 | 0.00 | 86 | 1021.3 |
| 20260509054628 | 52 | 211 | 0.0 | 0.0 | 0.00 | 0.00 | 0.00 | 86 | 1021.3 |
| 20260509054123 | 52 | 211 | 0.0 | 0.0 | 0.00 | 0.00 | 0.00 | 86 | 1021.3 |
| 20260509053618 | 52 | 211 | 0.0 | 0.0 | 0.00 | 0.00 | 0.00 | 86 | 1021.3 |
| 20260509053110 | 52 | 211 | 0.0 | 0.0 | 0.00 | 0.00 | 0.00 | 86 | 1021.3 |
| 20260509052604 | 52 | 211 | 0.0 | 0.0 | 0.00 | 0.00 | 0.00 | 85 | 1021.3 |
| 20260509052058 | 52 | 211 | 0.0 | 0.0 | 0.00 | 0.00 | 0.00 | 85 | 1021.2 |
| 20260509051555 | 52 | 211 | 0.0 | 0.0 | 0.00 | 0.00 | 0.00 | 85 | 1021.1 |
| 20260509051046 | 52 | 211 | 0.0 | 0.0 | 0.00 | 0.00 | 0.00 | 85 | 1021.2 |
| 20260509050541 | 52 | 211 | 0.0 | 0.0 | 0.00 | 0.00 | 0.00 | 84 | 1021.1 |
| 20260509050031 | 52 | 211 | 0.0 | 0.0 | 0.00 | 0.00 | 0.00 | 85 | 1021.1 |
| 20260509045531 | 52 | 211 | 0.0 | 0.0 | 0.00 | 0.00 | 0.00 | 84 | 1021.1 |
| 20260509045022 | 52 | 211 | 0.0 | 0.0 | 0.00 | 0.00 | 0.00 | 84 | 1021.1 |
| 20260509044516 | 52 | 211 | 0.0 | 0.0 | 0.00 | 0.00 | 0.00 | 84 | 1021.2 |
| 20260509044010 | 52 | 211 | 0.0 | 0.0 | 0.00 | 0.00 | 0.00 | 84 | 1021.0 |
| 20260509043502 | 53 | 211 | 0.0 | 0.0 | 0.00 | 0.00 | 0.00 | 84 | 1021.0 |
| 20260509042958 | 53 | 211 | 0.0 | 0.0 | 0.00 | 0.00 | 0.00 | 83 | 1021.0 |
| 20260509042451 | 53 | 211 | 0.0 | 0.0 | 0.00 | 0.00 | 0.00 | 83 | 1020.9 |
| 20260509041946 | 53 | 211 | 0.0 | 0.0 | 0.00 | 0.00 | 0.00 | 82 | 1020.8 |
| 20260509041442 | 53 | 211 | 0.0 | 0.0 | 0.00 | 0.00 | 0.00 | 82 | 1020.8 |
| 20260509040934 | 53 | 211 | 0.0 | 0.0 | 0.00 | 0.00 | 0.00 | 82 | 1020.7 |
| 20260509040430 | 53 | 211 | 0.0 | 0.0 | 0.00 | 0.00 | 0.00 | 81 | 1020.6 |
| 20260509040139 | 54 | 211 | 0.0 | 0.0 | 0.00 | 0.00 | 0.00 | 81 | 1020.5 |
| 20260509035419 | 54 | 211 | 0.0 | 0.0 | 0.00 | 0.00 | 0.00 | 80 | 1020.5 |
| 20260509034910 | 54 | 211 | 0.0 | 0.0 | 0.00 | 0.00 | 0.00 | 79 | 1020.5 |
| 20260509034404 | 54 | 211 | 0.0 | 0.0 | 0.00 | 0.00 | 0.00 | 79 | 1020.4 |
| 20260509033854 | 55 | 211 | 0.0 | 0.0 | 0.00 | 0.00 | 0.00 | 79 | 1020.4 |
| 20260509033354 | 55 | 211 | 0.0 | 0.0 | 0.00 | 0.00 | 0.00 | 78 | 1020.3 |
| 20260509032843 | 55 | 211 | 0.0 | 0.0 | 0.00 | 0.00 | 0.00 | 78 | 1020.3 |
| 20260509032337 | 55 | 211 | 0.0 | 0.0 | 0.00 | 0.00 | 0.00 | 78 | 1020.3 |
| 20260509031834 | 56 | 211 | 0.0 | 0.0 | 0.00 | 0.00 | 0.00 | 77 | 1020.2 |
| 20260509031330 | 56 | 212 | 0.0 | 0.0 | 0.00 | 0.00 | 0.00 | 77 | 1020.1 |
| 20260509030822 | 56 | 212 | 0.0 | 0.0 | 0.00 | 0.00 | 0.00 | 76 | 1020.2 |
| 20260509030318 | 57 | 212 | 0.0 | 0.0 | 0.00 | 0.00 | 0.00 | 75 | 1020.1 |
| 20260509030024 | 57 | 212 | 0.0 | 0.0 | 0.00 | 0.00 | 0.00 | 74 | 1020.1 |
| 20260509025533 | 57 | 212 | 0.0 | 0.0 | 0.00 | 0.00 | 0.00 | 72 | 1020.1 |
| 20260509024759 | 58 | 212 | 0.0 | 0.0 | 0.00 | 0.00 | 0.00 | 73 | 1020.1 |
| 20260509024255 | 58 | 212 | 0.0 | 0.0 | 0.00 | 0.00 | 0.00 | 72 | 1020.1 |
| 20260509023753 | 58 | 212 | 0.0 | 0.0 | 0.00 | 0.00 | 0.00 | 72 | 1020.0 |
| 20260509023255 | 59 | 212 | 0.0 | 0.0 | 0.00 | 0.00 | 0.00 | 69 | 1019.9 |